Livermore, CA

10:55 AM PST on November 18, 2017 (GMT -0800)
Livermore Municipal

Weather History for KLVK - July, 2014

Change the Weather History Date:

Thursday, July 24, 2014

  Actual Average Record
Temperature  
Mean Temperature 78 °F 73 °F  
Max Temperature 96 °F 88 °F 110 °F (2006)
Min Temperature 59 °F 57 °F 47 °F (1977)
Degree Days  
Heating Degree Days 0 0  
Month to date heating degree days 0 0  
Since 1 June heating degree days 4 32  
Since 1 July heating degree days 0 0  
Cooling Degree Days 13 8  
Month to date cooling degree days 212 178  
Year to date cooling degree days 531 341  
Since 1 June cooling degree days 405 288  
Growing Degree Days 28 (Base 50)    
Moisture  
Dew Point 54 °F    
Average Humidity 55    
Maximum Humidity 90    
Minimum Humidity 20    
Precipitation  
Precipitation 0.00 in 0.00 in 0.16 in (1946)
Month to date precipitation T 0.00  
Year to date precipitation 4.88 9.90  
Since 1 July precipitation T  
Sea Level Pressure  
Sea Level Pressure 29.92 in    
Wind  
Wind Speed 5 mph (WNW)    
Max Wind Speed 17 mph    
Max Gust Speed 21 mph    
Visibility 10 miles    
Events      
T = Trace of Precipitation, MM = Missing Value Source: NWS Daily Summary

Daily Weather History Graph

Daily Weather History Graph

Search for Another Location

Airport or City:

Trip Planner

Search our weather history database for the weather conditions in past years. The results will help you decide how hot, cold, wet, or windy it might be!

Date:

Astronomy

Jul. 24, 2014 Rise Set
Actual Time 6:04 AM PDT 8:22 PM PDT
Civil Twilight 5:34 AM PDT 8:52 PM PDT
Nautical Twilight 4:58 AM PDT 9:28 PM PDT
Astronomical Twilight 4:18 AM PDT 10:08 PM PDT
Moon 4:16 AM PDT (7/24) 6:42 PM PDT (7/24)
Length of Visible Light 15h 17m
Length of Day
14h 18m
Waning Crescent, 4% of the Moon is Illuminated
Jul 24
Waning Crescent
Jul 26
New
Aug 3
First Quarter
Aug 10
Full
Aug 17
Last Quarter

Hourly Weather History & Observations

Time (PDT) Temp. Heat Index Dew Point Humidity Pressure Visibility Wind Dir Wind Speed Gust Speed Precip Events Conditions
12:53 AM 63.0 °F - 57.9 °F 84% 30.04 in 10.0 mi WNW 6.9 mph - N/A   Clear
1:53 AM 63.0 °F - 57.9 °F 84% 30.02 in 10.0 mi WNW 5.8 mph - N/A   Clear
2:53 AM 61.0 °F - 57.0 °F 87% 30.02 in 10.0 mi West 5.8 mph - N/A   Clear
3:53 AM 61.0 °F - 57.0 °F 87% 30.01 in 10.0 mi NW 5.8 mph - N/A   Clear
4:53 AM 60.1 °F - 57.0 °F 90% 30.00 in 10.0 mi WNW 5.8 mph - N/A   Clear
5:53 AM 60.1 °F - 57.0 °F 90% 30.00 in 10.0 mi WNW 4.6 mph - N/A   Clear
6:53 AM 61.0 °F - 57.0 °F 87% 30.01 in 10.0 mi NW 3.5 mph - N/A   Clear
7:53 AM 63.0 °F - 57.0 °F 81% 30.01 in 10.0 mi West 3.5 mph - N/A   Clear
8:53 AM 68.0 °F - 57.0 °F 68% 30.01 in 10.0 mi Calm Calm - N/A   Clear
9:53 AM 72.0 °F - 55.9 °F 57% 29.99 in 10.0 mi Calm Calm - N/A   Clear
10:53 AM 78.1 °F - 55.0 °F 45% 29.98 in 10.0 mi Variable 4.6 mph - N/A   Clear
11:53 AM 82.9 °F 82.0 °F 55.0 °F 38% 29.95 in 10.0 mi WSW 3.5 mph - N/A   Clear
12:53 PM 88.0 °F 85.7 °F 53.1 °F 30% 29.92 in 10.0 mi Variable 4.6 mph - N/A   Clear
1:53 PM 91.0 °F - 50.0 °F 24% 29.89 in 10.0 mi Calm Calm - N/A   Clear
2:53 PM 93.9 °F - 50.0 °F 22% 29.86 in 10.0 mi NW 6.9 mph - N/A   Clear
3:53 PM 95.0 °F - 48.9 °F 21% 29.83 in 10.0 mi WNW 5.8 mph - N/A   Clear
4:53 PM 95.0 °F - 52.0 °F 23% 29.81 in 10.0 mi West 13.8 mph - N/A   Clear
5:53 PM 91.9 °F 89.5 °F 53.1 °F 27% 29.81 in 10.0 mi West 13.8 mph - N/A   Clear
6:53 PM 87.1 °F - 52.0 °F 30% 29.81 in 10.0 mi WNW 16.1 mph - N/A   Clear
7:53 PM 81.0 °F 80.5 °F 54.0 °F 39% 29.82 in 10.0 mi West 15.0 mph - N/A   Clear
8:53 PM 78.1 °F - 50.0 °F 37% 29.83 in 10.0 mi WNW 8.1 mph - N/A   Clear
9:53 PM 77.0 °F - 50.0 °F 39% 29.83 in 10.0 mi Calm Calm - N/A   Clear
10:53 PM 75.0 °F - 52.0 °F 44% 29.84 in 10.0 mi Calm Calm - N/A   Clear
11:53 PM 73.0 °F - 51.1 °F 46% 29.84 in 10.0 mi Calm Calm - N/A   Clear